Cloud_Cover
3 8 5 3 0 28 100 43 5 1 0 0 0 0 0 0 0 0 0 0 0 0 0 0 0 0 0 0 0 0 0 0 0 0 0 0 0 0 0 0 0 1 10
26 6 100 5 5 0 2 6 28 5 5 5 5 5 0 0 0 0 0 0 0 0 0 0 0 0 0 0 0 0 0 0 0 0 0 0 0 0 0 0 0 0 0
84 89 100 61 8 5 5 10 9 7 5 4 5 5 0 0 0 0 0 0 0 0 0 4 3 0 0 0 0 0 0 0 0 0 1 100 0 9 0 0 0 0 0
70 24 92 20 86 63 97 82 97 53 10 5 5 4 0 0 0 0 0 0 0 0 16 53 16 0 0 0 0 0 0 0 0 0 0 0 0 0 0 0 0 0 0
100 97 54 98 43 86 99 100 100 81 48 27 36 5 17 6 1 0 0 0 0 0 5 20 5 0 0 0 0 0 0 0 0 0 0 0 0 0 0 0 0 0 0
35 70 99 54 99 5 100 100 100 100 99 49 86 90 82 21 1 2 0 0 0 0 15 26 27 0 0 0 0 0 13 5 0 2 5 1 2 45 5 5 0 0 0
100 100 100 100 100 100 100 98 82 30 62 80 53 56 30 9 16 0 0 0 0 26 40 44 16 0 0 0 0 0 0 30 41 54 5 5 3 3 8 0 0 0 0
36 100 100 100 100 100 60 86 99 100 99 34 5 5 4 5 10 7 5 1 2 2 3 0 0 0 0 0 0 0 0 4 16 38 15 9 5 2 0 0 0 6 0
84 57 72 100 100 100 100 100 100 100 100 82 5 32 5 6 100 75 5 5 0 0 0 0 0 0 0 0 0 0 0 22 46 51 30 88 57 4 14 11 0 5 8
65 63 100 92 59 16 81 100 100 100 100 99 6 5 6 98 84 5 85 5 5 5 5 5 5 5 2 0 0 8 6 0 5 94 100 83 5 97 100 9 80 13 2
68 61 54 21 60 92 65 100 100 97 87 100 83 11 54 97 73 100 5 44 5 5 8 6 5 5 5 2 0 5 5 0 5 66 85 81 85 80 100 17 5 80 100
100 100 100 100 100 84 100 100 100 83 73 38 75 100 65 100 96 43 92 73 5 5 5 30 94 42 5 8 5 2 0 0 0 20 83 19 63 97 9 5 15 100 100
100 73 55 99 100 100 100 100 100 62 39 27 76 100 53 98 100 100 95 32 5 5 5 72 80 33 7 95 8 5 1 0 1 1 0 2 7 21 5 100 100 100 99
56 50 78 18 78 98 100 98 100 100 100 64 94 100 41 99 100 100 98 99 69 47 62 80 96 37 8 92 51 5 5 0 14 6 0 0 2 4 2 100 76 100 100
47 25 30 22 5 32 79 100 100 100 96 100 100 100 100 90 100 100 100 100 84 14 71 94 65 89 63 99 15 5 5 5 5 8 2 2 5 100 100 97 58 96 100
12 5 11 13 32 10 42 48 92 100 100 100 100 100 100 100 100 100 100 99 63 63 77 21 36 84 78 95 35 5 5 3 3 5 5 2 2 99 100 100 96 71 54
88 83 5 3 0 4 3 7 95 100 100 100 100 100 100 100 100 100 100 100 85 63 5 67 59 90 68 37 33 5 5 5 5 5 5 5 5 11 100 100 100 96 74
1 5 88 70 21 0 0 0 9 44 25 99 76 100 100 100 100 100 83 82 98 100 94 100 88 53 39 97 44 20 86 70 76 11 5 5 5 5 71 99 100 100 100
67 15 1 6 40 5 4 0 0 5 24 54 98 13 100 100 100 100 100 100 100 100 100 100 100 100 100 35 100 100 100 100 100 100 84 100 95 41 5 5 18 65 71
100 100 100 100 92 74 5 4 4 5 5 5 5 33 14 89 100 100 100 100 100 100 100 100 100 100 100 100 100 100 100 100 100 100 100 100 100 94 80 40 96 100 100
100 100 11 91 100 100 91 2 5 0 0 4 5 1 5 31 11 63 100 100 100 100 100 100 100 100 100 74 100 85 100 95 100 100 100 100 100 100 100 100 100 100 76
100 100 100 100 66 49 100 85 5 5 78 96 100 100 94 34 8 49 29 42 36 44 31 26 86 96 100 100 100 100 98 85 100 72 98 100 100 100 100 100 96 33 8
100 100 100 100 100 100 100 100 100 55 0 16 97 100 85 20 7 89 86 80 100 100 100 100 100 100 100 100 100 79 46 27 75 100 100 100 100 89 18 19 5 67 37
2 9 92 100 100 100 100 16 100 100 88 44 95 100 100 35 5 5 19 85 100 100 84 88 100 100 99 100 100 100 100 100 100 100 100 100 100 5 5 5 6 11 5
16 5 5 5 50 29 100 100 73 46 99 100 100 100 100 100 96 26 6 5 10 93 55 7 38 55 35 25 100 100 100 100 100 100 100 100 99 24 7 5 5 5 8
48 57 58 16 54 74 77 91 100 67 73 100 100 100 100 100 100 100 100 100 100 98 100 100 99 100 100 93 97 82 88 100 100 100 100 100 100 99 65 18 20 5 5